Location: Chateh
(58.6667°N, 118.6000°W)
Time: 08:56:46
(UTC+00:00)

O/OREOS (USA 219) - Pass Details

Date: 13 December 2023
Orbit: 621 x 646 km, 72.0° (Epoch: 22 May)

Event Time Altitude Azimuth Distance (km) Brightness Sun altitude
Exits shadow 14:12:50 21° 330° (NNW) 1,412 ? -16.6°
Maximum altitude 14:15:47 70° 51° (NE) 674 ? -16.2°
Drops below altitude 10° 14:20:18 10° 136° (SE) 2,016 ? -15.7°
Sets 14:22:34 0° 139° (SE) 2,924 ? -15.4°
